Location: Gro� Glienicke
(52.4675°N, 13.1079°E)
Time: 07:31:37
(UTC+00:00)

Cosmos 1844 Rocket - Pass Details

Date: 06 July 2020
Orbit: 826 x 843 km, 71.0° (Epoch: 04 August)

Event Time Altitude Azimuth Distance (km) Brightness Sun altitude
Rises 20:47:52 0° 323° (NW) 3,378 8.3 -8.6°
Reaches altitude 10° 20:50:37 10° 312° (NW) 2,439 6.6 -8.8°
Maximum altitude 20:55:14 27° 256° (WSW) 1,527 4.3 -9.2°
Drops below altitude 10° 20:59:51 10° 199° (SSW) 2,424 4.7 -9.6°
Enters shadow 21:01:37 - 191° (S) 3,017 5.1 -9.7°
